Find Starlink 1871

NORAD ID: 47157 Int'l Des: 2020-088 Owner: SPXS Country: US Constellation: starlink operational
LEOCIRCULAR

Live-Position

3D-Globus wird geladen...

Über Starlink 1871

Beschreibung wird geladen...

Nächste Überflüge

Passes for default location (London). Set your location on the main map for personalized predictions.

Höhenverlauf

Loading altitude history...

Zweizeiliger Elementsatz

1 47157U 20088AM 26127.85547764 .00041487 00000-0 12721-2 0 9995
2 47157 53.1584 21.1642 0001701 171.9957 188.1073 15.33391114300985
Epoch: 7. Mai 2026 • Age: 4 hours

Aktueller Status

Höhe 472.1 km
Geschwindigkeit 7.64 km/s
Subsatellitenpunkt 53.31°N, 115.17°W
Startdatum 25. Nov. 2020
Alter 5.4 years
Typ internet

Technische Details

Klassifizierung Payload
Masse 260.00 kg
Trockenmasse 248.00 kg
Gesamtmasse 260.00 kg
Länge 0.20 m
Durchmesser 2.80 m
Spannweite 9.00 m
Form Box + pan
Hersteller SPXS
Bus-Typ Starlink
Phasenstatus In Orbit
Besitzer/Staat SPXS/US

Most Searched